Regional Weather Roundup
Issued by NWS

Home | Current Version | Previous Version | Graphics & Text | Print | Product List | Glossary On
Versions: 1 2 3 4 5 6 7 8 9 10 11 12 13 14 15 16 17 18 19 20 21 22 23 24 25 26 27 28 29 30 31 32 33 34 35 36 37 38 39 40 41 42 43 44 45 46 47 48 49 50
000
ASUS45 KSLC 300110
RWRUT

UTAH REGIONAL WEATHER ROUNDUP
NATIONAL WEATHER SERVICE SALT LAKE CITY UT
700 PM MDT WED JUL 29 2015

UTZ001>011-023>025-300200-

NORTHERN UTAH

CITY           SKY/WX    TMP DP  RH WIND       PRES   REMARKS
BRIGHAM CITY   SUNNY     83  11   6 W5        30.22F
HILL AFB       SUNNY     82  27  13 N7        30.25F
LOGAN          SUNNY     83   7   5 N6        30.23F
OGDEN          SUNNY     82  25  12 W5        30.22F
PROVO AIRPORT  NOT AVBL
SALT LAKE CITY SUNNY     85  25  11 NW7       30.20F
VERNAL         SUNNY     86   5   4 CALM      30.22S
WENDOVER       SUNNY     82  27  13 SE3       30.21F
HEBER CITY     SUNNY     82  28  14 W5        30.27S
WEST JORDAN    SUNNY     82  34  17 CALM      30.24S

$$

UTZ012>022-026-027-300200-

SOUTHERN/CENTRAL UTAH

CITY           SKY/WX    TMP DP  RH WIND       PRES   REMARKS
BLANDING       MOSUNNY   87  31  13 E7        30.29R
BRYCE CANYON   MOSUNNY   81  31  16 W12       30.36S
CEDAR CITY     MOSUNNY   87  22   9 N8        30.21S
DELTA          SUNNY     88  21   8 N8        30.20S
HANKSVILLE     MOSUNNY   93  28  10 SE8       30.12R
MILFORD        MOSUNNY   91  28  10 NE15      30.18S
MOAB/CYNLANDS  SUNNY     93  22   7 NW5       30.10F
PRICE          SUNNY     88  23   9 NW15G21   30.25R
ST GEORGE      CLEAR    100  36  10 SW10G17   29.98S HX  95
KANAB          MOSUNNY   93  34  12 NE3       30.18S

$$

REGIONAL REPORTS     COLORADO/ARIZONA

CITY           SKY/WX    TMP DP  RH WIND       PRES   REMARKS
CRAIG, CO      SUNNY     83  18   9 NW6       30.29S
GRAND JUNCTION MOSUNNY   88  24  10 W6        30.14S
RIFLE          MOSUNNY   88  26  10 N8        30.20R
MONTROSE       MOSUNNY   87  30  13 NW13      30.23S
CORTEZ         SUNNY     83  42  23 S9        30.25R
PAGE, AZ       SUNNY     95  23   7 E3        30.08S
GRAND CANYON   MOSUNNY   84  27  12 NE9       30.29R
KINGMAN        PTSUNNY   90  54  29 SW17G24   30.05S
FLAGSTAFF      CLOUDY    73  46  38 S9        30.34R

$$

REGIONAL REPORTS    NEVADA/IDAHO/WYOMING

CITY           SKY/WX    TMP DP  RH WIND       PRES   REMARKS
LAS VEGAS, NV  CLOUDY    93  51  23 S13G20    29.91F HX  90
ELY            MOSUNNY   87  22   9 N10       30.26S
ELKO           PTSUNNY   89  17   7 VRB5      30.20F
POCATELLO, ID  MOSUNNY   81  37  20 NW7       30.25F
BURLEY         SUNNY     83  35  18 N5        30.20F
EVANSTON, WY   SUNNY     76  14   9 W16G23    30.39S
ROCK SPRINGS   SUNNY     76   8   7 W12       30.35S
KEMMERER       SUNNY     73  19  13 NW8       30.40F

$$



USA.gov is the U.S. government's official web portal to all federal, state and local government web resources and services.